Weather reports worldwide

Advertisment
Menorca/Mahon, Spain (8314): temperature & dewpoint: 11.06.2019 20:00:00 - 17.06.2019 20:00:00 (CEST)Menorca/Mahon, Spain (8314): wind speed: 11.06.2019 20:00:00 - 17.06.2019 20:00:00 (CEST)Menorca/Mahon, Spain (8314): wind direction: 11.06.2019 20:00:00 - 17.06.2019 20:00:00 (CEST)Menorca/Mahon, Spain (8314): reduced air pressure: 11.06.2019 20:00:00 - 17.06.2019 20:00:00 (CEST)Menorca/Mahon, Spain (8314): visibility: 11.06.2019 20:00:00 - 17.06.2019 20:00:00 (CEST)
Date & Time tt [°C] td [°C] ff [km/h] ff [kn] dd ppp [hPa] vv [km]
17.06.2019 20:00:00 - - - - - - -
17.06.2019 19:00:00 24,0 15,6 11 6 SSW 1016,0 -
17.06.2019 18:00:00 24,9 13,4 15 8 S 1016,0 -
17.06.2019 17:00:00 25,9 15,7 16 9 S 1016,4 45
17.06.2019 16:00:00 26,2 11,9 13 7 S 1016,7 -
17.06.2019 15:00:00 26,3 13,8 16 9 S 1016,8 30
17.06.2019 14:00:00 26,7 12,4 15 8 S 1016,9 50
17.06.2019 13:00:00 27,3 13,2 9 5 S 1017,0 -
17.06.2019 12:00:00 25,8 10,5 18 10 N 1017,2 -
17.06.2019 11:00:00 24,7 10,9 15 8 NNW 1017,2 30
17.06.2019 10:00:00 25,8 10,1 21 11 N 1016,8 -
17.06.2019 09:00:00 24,1 11,1 15 8 NNW 1016,7 30
17.06.2019 08:00:00 20,7 14,2 11 6 NNW 1016,7 20
17.06.2019 07:00:00 17,9 16,1 11 6 NW 1017,1 -
17.06.2019 06:00:00 17,2 15,5 8 4 NW 1017,4 -
17.06.2019 05:00:00 17,3 15,6 15 8 WNW 1017,2 -
17.06.2019 04:00:00 16,8 15,5 9 5 W 1017,4 -
17.06.2019 03:00:00 16,9 15,6 8 4 W 1017,5 -
17.06.2019 02:00:00 16,7 14,9 8 4 WSW 1018,0 -
17.06.2019 01:00:00 16,8 14,6 8 4 NW 1017,4 -
17.06.2019 00:00:00 17,4 15,0 8 4 WSW 1018,1 -
16.06.2019 23:00:00 18,7 15,8 9 5 W 1018,3 25
16.06.2019 22:00:00 19,1 15,4 9 5 WSW 1017,8 -
16.06.2019 21:00:00 20,0 15,4 9 5 W 1017,5 -
16.06.2019 20:00:00 22,1 7,4 11 6 N 1017,8 25
16.06.2019 19:00:00 23,5 8,2 15 8 NNE 1017,7 -
16.06.2019 18:00:00 24,7 8,6 16 9 NE 1018,0 -
16.06.2019 17:00:00 24,6 11,5 15 8 NNE 1018,6 25
16.06.2019 16:00:00 23,1 12,7 16 9 NE 1019,1 -
16.06.2019 15:00:00 24,0 12,9 18 10 NE 1019,5 50
16.06.2019 14:00:00 23,7 13,3 21 11 NNE 1020,0 55
16.06.2019 13:00:00 23,2 13,6 24 13 NE 1020,1 -
16.06.2019 12:00:00 23,7 13,0 26 14 NNE 1019,9 -
16.06.2019 11:00:00 22,1 13,8 35 19 NNE 1019,2 40
16.06.2019 10:00:00 21,6 13,8 37 20 NNE 1019,2 -
16.06.2019 09:00:00 20,7 14,0 37 20 NNE 1019,3 30
16.06.2019 08:00:00 19,5 14,5 29 16 NNE 1019,3 30
16.06.2019 07:00:00 17,9 14,2 16 9 NNE 1019,4 -
16.06.2019 06:00:00 16,7 13,8 13 7 NNE 1019,3 -
16.06.2019 05:00:00 16,6 13,9 16 9 NNE 1019,2 -
16.06.2019 04:00:00 17,1 14,2 18 10 NNE 1019,3 -
16.06.2019 03:00:00 17,7 15,1 26 14 NNE 1019,4 -
16.06.2019 02:00:00 17,8 15,4 28 15 NNE 1019,5 -
16.06.2019 01:00:00 17,9 15,4 24 13 NNE 1019,6 -
16.06.2019 00:00:00 18,6 16,7 26 14 NNE 1019,5 -
15.06.2019 23:00:00 18,8 16,9 18 10 NNE 1019,2 18
15.06.2019 22:00:00 19,2 16,8 16 9 N 1018,1 -
15.06.2019 21:00:00 20,4 16,4 18 10 N 1017,4 -
15.06.2019 20:00:00 22,7 16,3 18 10 NNE 1016,9 18
15.06.2019 19:00:00 23,7 17,0 11 6 SSW 1016,4 -
15.06.2019 18:00:00 25,2 17,4 8 4 S 1016,1 -
15.06.2019 17:00:00 24,6 17,2 11 6 SSW 1016,3 18
15.06.2019 16:00:00 24,4 17,1 15 8 SW 1016,2 -
15.06.2019 15:00:00 23,7 17,7 18 10 SW 1016,4 18
15.06.2019 14:00:00 23,3 17,3 21 11 SW 1016,5 18
15.06.2019 13:00:00 23,0 16,9 26 14 SW 1016,7 -
15.06.2019 12:00:00 22,9 16,7 26 14 WSW 1016,3 -
15.06.2019 11:00:00 22,3 15,6 31 17 SW 1016,5 18
15.06.2019 10:00:00 22,0 16,0 28 15 SW 1016,1 -
15.06.2019 09:00:00 21,0 16,1 26 14 SW 1015,9 18
15.06.2019 08:00:00 20,3 16,9 26 14 SW 1015,5 12
15.06.2019 07:00:00 19,6 17,4 24 13 SW 1015,5 -
15.06.2019 06:00:00 18,8 17,6 22 12 SSW 1015,2 -
15.06.2019 05:00:00 18,7 17,7 18 10 SSW 1014,9 -
15.06.2019 04:00:00 18,5 17,5 18 10 SSW 1015,0 -
15.06.2019 03:00:00 18,2 16,9 4 2 SW 1015,6 -
15.06.2019 02:00:00 18,7 17,5 13 7 SW 1015,3 -
15.06.2019 01:00:00 19,4 18,1 11 6 WSW 1015,7 -
15.06.2019 00:00:00 19,6 18,4 15 8 SW 1015,7 -
14.06.2019 23:00:00 19,6 18,3 18 10 SW 1015,1 9
14.06.2019 22:00:00 18,7 16,1 9 5 S 1014,6 -
14.06.2019 21:00:00 20,5 16,3 9 5 WSW 1013,8 -
14.06.2019 20:00:00 21,8 16,5 13 7 W 1013,1 20
14.06.2019 19:00:00 22,2 16,8 18 10 WSW 1012,9 -
14.06.2019 18:00:00 22,1 17,1 22 12 WSW 1012,3 -
14.06.2019 17:00:00 22,4 17,1 24 13 W 1011,8 19
14.06.2019 16:00:00 23,2 16,7 26 14 W 1010,9 -
14.06.2019 15:00:00 23,5 17,0 31 17 W 1010,1 15
14.06.2019 14:00:00 23,1 17,4 34 18 W 1009,6 15
14.06.2019 13:00:00 22,0 17,9 29 16 W 1009,2 -
14.06.2019 12:00:00 23,1 18,0 34 18 SW 1008,2 -
14.06.2019 11:00:00 22,5 18,7 31 17 SW 1006,8 9
14.06.2019 10:00:00 22,5 19,5 29 16 SW 1006,3 -
14.06.2019 09:00:00 20,5 19,3 21 11 SSW 1005,4 1,8
14.06.2019 08:00:00 20,7 19,2 26 14 S 1005,3 -
14.06.2019 07:00:00 20,7 18,8 26 14 SSE 1004,5 -
14.06.2019 06:00:00 20,4 18,3 22 12 E 1004,0 -
14.06.2019 05:00:00 20,2 17,8 22 12 ENE 1005,2 -
14.06.2019 04:00:00 20,5 17,3 28 15 ENE 1005,3 -
14.06.2019 03:00:00 20,2 16,6 31 17 ENE 1006,4 -
14.06.2019 02:00:00 19,6 17,4 28 15 ENE 1007,7 -
14.06.2019 01:00:00 19,7 17,0 28 15 NE 1008,8 -
14.06.2019 00:00:00 20,0 16,6 26 14 NNE 1010,4 -
13.06.2019 23:00:00 20,1 15,9 26 14 ENE 1010,1 20
13.06.2019 22:00:00 20,1 16,3 34 18 ENE 1009,5 -
13.06.2019 21:00:00 20,2 16,4 34 18 ENE 1009,4 -
13.06.2019 20:00:00 21,1 16,3 35 19 ENE 1009,7 30
13.06.2019 19:00:00 21,7 16,0 35 19 ENE 1010,1 -
13.06.2019 18:00:00 21,4 15,9 35 19 ENE 1010,8 -
13.06.2019 17:00:00 22,6 14,8 41 22 ENE 1011,2 30
13.06.2019 16:00:00 22,6 14,0 37 20 NE 1012,1 -
13.06.2019 15:00:00 22,2 13,9 39 21 NE 1012,8 50
13.06.2019 14:00:00 22,5 12,9 34 18 ENE 1013,6 50
13.06.2019 13:00:00 22,0 12,7 35 19 ENE 1014,0 -
13.06.2019 12:00:00 21,8 12,2 34 18 ENE 1014,2 -
13.06.2019 11:00:00 21,5 12,1 34 18 ENE 1014,3 60
13.06.2019 10:00:00 20,9 12,6 35 19 E 1013,3 -
13.06.2019 09:00:00 19,3 13,1 31 17 ENE 1014,1 60
13.06.2019 08:00:00 18,9 13,3 29 16 ENE 1013,9 60
13.06.2019 07:00:00 16,9 13,6 13 7 NE 1014,4 -
13.06.2019 06:00:00 15,1 12,7 15 8 ENE 1014,1 -
13.06.2019 05:00:00 15,2 12,9 15 8 ENE 1014,5 -
13.06.2019 04:00:00 15,1 12,6 13 7 ENE 1014,5 -
13.06.2019 03:00:00 14,8 11,9 11 6 E 1014,7 -
13.06.2019 02:00:00 15,2 12,1 15 8 ENE 1014,8 -
13.06.2019 01:00:00 15,5 12,1 13 7 ENE 1015,3 -
13.06.2019 00:00:00 15,5 11,9 13 7 ENE 1015,9 -
12.06.2019 23:00:00 15,9 11,9 11 6 ENE 1016,2 50
12.06.2019 22:00:00 16,7 12,0 13 7 E 1016,0 -
12.06.2019 21:00:00 17,7 12,2 16 9 E 1015,7 -
12.06.2019 20:00:00 19,2 11,8 18 10 ENE 1015,3 50
12.06.2019 19:00:00 19,9 11,3 18 10 ENE 1015,1 -
12.06.2019 18:00:00 19,4 11,5 21 11 ENE 1015,3 -
12.06.2019 17:00:00 19,2 11,2 22 12 NE 1015,5 45
12.06.2019 16:00:00 20,6 10,8 18 10 NE 1015,7 -
12.06.2019 15:00:00 20,6 10,1 21 11 NE 1015,8 50
12.06.2019 14:00:00 21,2 10,0 22 12 NE 1015,8 50
12.06.2019 13:00:00 20,9 10,2 18 10 NE 1015,9 -
12.06.2019 12:00:00 20,1 10,3 22 12 NE 1015,7 -
12.06.2019 11:00:00 19,1 10,1 18 10 NNE 1015,6 50
12.06.2019 10:00:00 19,0 10,3 16 9 NNE 1015,5 -
12.06.2019 09:00:00 17,9 11,2 31 17 NE 1014,6 50
12.06.2019 08:00:00 17,6 11,4 24 13 NNE 1014,3 50
12.06.2019 07:00:00 16,1 12,1 22 12 NNE 1014,0 -
12.06.2019 06:00:00 15,9 11,9 16 9 NE 1013,6 -
12.06.2019 05:00:00 15,7 11,1 16 9 NE 1013,2 -
12.06.2019 04:00:00 16,1 11,8 24 13 NNE 1013,3 -
12.06.2019 03:00:00 15,6 11,8 24 13 N 1013,6 -
12.06.2019 02:00:00 15,8 12,4 24 13 N 1013,7 -
12.06.2019 01:00:00 16,2 12,9 28 15 N 1014,0 -
12.06.2019 00:00:00 16,5 13,4 26 14 N 1014,0 -
11.06.2019 23:00:00 16,7 13,6 29 16 NNE 1013,6 15
11.06.2019 22:00:00 17,2 14,2 28 15 NNE 1012,5 -
11.06.2019 21:00:00 17,7 14,2 26 14 NE 1011,6 -
11.06.2019 20:00:00 19,1 14,9 26 14 NE 1011,1 22

tt = temperature
td = dewpoint
ff = wind speed
dd = wind direction
ppp = reduced air pressure
vv = visibility

Next stations